sat.trackr.live / text

‹ back to catalog

STARLINK-37654

NORAD 69141 · 2026-110T

PAYLOAD ACTIVE UNKNOWN

§ Identity

Operator
Country
US
Launch date
2026-05-20
Launch site
AFWTR
Launch vehicle
Mass (kg)
RCS (m²)

Purposes: comms

External: N2YO · Heavens-Above · Gunter

§ Orbital elements

Epoch: 2026-09-19T14:52:27.973344Z

Period
93.90 min
Inclination
97.2877°
Eccentricity
0.0003293
Mean motion
15.33472660 rev/d
Perigee alt
463.2 km
Apogee alt
467.7 km
Semi-major
6,843.6 km
B*
3.4569e-4
RAAN
97.7321°
Arg perigee
117.4160°
Mean anomaly
242.7418°
Rev number
2,008

§ Raw data

STARLINK-376541 69141U 26110T   26262.61976821  .00011113  00000+0  34569-3 0  99952 69141  97.2877  97.7321 0003293 117.4160 242.7418 15.33472660 20084

JSON: /api/v1/satellites/69141 · /tle

For live sub-satellite position, see the globe view (requires WebGL).

§ Visibility from observer

Set your observer location to see the next 7 days of passes ≥ 10°. The values pass through the URL so the page stays shareable.

No JS? Fill the form by hand. The geolocation button needs JavaScript.